CZ-6A DEB, 60695

Orbit data source: Space-Track

CZ-6A DEB, 60695 is space debris in LEO originally from a launch on Tue, 06 Aug 2024 UTC launched from the Taiyaun Space Center, China (TSC). Debris objects in space refer to the collection of defunct objects orbiting the Earth. Examples of debris include non-operational satellites, rocket bodies, and fragments generated from explosions, collisions, or faulty payload assembly.

Loading next visibility...
Identifier
60695, 2024-140CY
Orbit
LEO
Country
Flag of CNCN / PRC
Related business
Manufacturer
SAST
Mission
Spacecraft
Bus & Motor
Unknown
Mass
Unknown
Launch date (UTC)
2024-08-06 (1 year ago)
Launch vehicle
Unknown
Launch site
Taiyaun Space Center, China (TSC)
Object type
Payload
Rocket body
Debris
Shape & HBR
Unknown shape, 0.2 m
Radar Cross Section
Medium (>0.1 m² and <1 m²)

Expand to show TLE details & history
Last TLE update: 1 day ago

TLE from 1 day ago
0 CZ-6A DEB
1 60695U 24140CY  25312.44865041  .00001233  00000-0  60249-3 0  9995
2 60695  89.0324 301.8341 0058446 183.9387 176.1349 14.16523016 64358
Epoch: 2025-11-08T10:46Z
TLE epoch observation values (Epoch: 2025-11-08T10:46:03.395Z)
Latitude
-0.00007°
Longitude
92.44184°
Altitude
882.269 km
Speed
7.389 km/s
True Right ascension
20h 07m 20s
True Declination
0° 00' 00"
Sunlit
Object was in daylight at epoch
Visualization orbit readout
Latitude
Unknown
Longitude
Unknown
Altitude
Unknown
Speed
Unknown
Apparent Right ascension
Unknown
Apparent Declination
Unknown
Sunlit
N/A
Visualization observer readout
Local Sidereal Time
11:26:52
Azimuth
Unknown
Elevation
Unknown
Doppler factor
Unknown
Orbital elements
Apogee altitude
876.244 km
Perigee altitude
791.939 km
Semi-major axis
7,212.229 km
Eccentricity
0.00584
Inclination
89.0324°
RAAN
301.8341°
Arg. of periapsis
183.9387°
True anomaly
176.17972°
Mean anomaly
176.1349°
Eccentric anomaly
176.15734°
Mean motion
3.54355 °/min
Orbital period
101.59 mins
BSTAR
0.00060249
Loading maneuver chart data...
Computing Atmospheric mass density...
Loading historical data...
Loading historical data...
Loading historical data...
Loading historical data...
Loading historical data...
Loading historical data...
Loading historical data...

Documentation

Showing up to 5 results
|